AFR2VR LFBD-EGJJ

Flight info

Callsign AFR2VR
Flight time 0h 48m
Altitude 36000
Route ROYAN DCT NTS UY110 REN A25 LERAK
Aircraft A320/M-SDE3FGHIRWY/LB1

Departure

Time 2026-05-04 20:11
Airport Bordeaux–Mérignac Airport (LFBD)

Arrival

Time 2026-05-04 21:00
Airport Jersey Airport (EGJJ)
Time Latitude Longitude Altitude Speed Heading
2026-05-04 19:54 44.83125 -0.70443 170 ft 0 kts 113°
2026-05-04 20:03 44.83127 -0.70449 168 ft 3 kts 113°
2026-05-04 20:03 44.83137 -0.70483 168 ft 4 kts 111°
2026-05-04 20:04 44.83146 -0.70520 168 ft 4 kts 101°
2026-05-04 20:04 44.83147 -0.70555 168 ft 4 kts 61°
2026-05-04 20:04 44.83143 -0.70563 168 ft 0 kts 45°
2026-05-04 20:06 44.83163 -0.70536 168 ft 6 kts 45°
2026-05-04 20:06 44.83196 -0.70541 168 ft 7 kts 330°
2026-05-04 20:07 44.83268 -0.70510 168 ft 22 kts 48°
2026-05-04 20:07 44.83405 -0.70314 168 ft 30 kts 46°
2026-05-04 20:07 44.83549 -0.70107 168 ft 27 kts 45°
2026-05-04 20:07 44.83654 -0.70003 168 ft 14 kts 354°
2026-05-04 20:08 44.83699 -0.70027 166 ft 0 kts 335°
2026-05-04 20:09 44.83701 -0.70028 165 ft 3 kts 335°
2026-05-04 20:09 44.83739 -0.70052 164 ft 9 kts 336°
2026-05-04 20:10 44.83807 -0.70101 166 ft 13 kts 325°
2026-05-04 20:10 44.83816 -0.70179 167 ft 7 kts 224°
2026-05-04 20:10 44.83709 -0.70330 166 ft 54 kts 226°
2026-05-04 20:10 44.83273 -0.70953 170 ft 121 kts 225°
2026-05-04 20:11 44.82581 -0.71976 376 ft 152 kts 230°
2026-05-04 20:11 44.81868 -0.73036 1112 ft 149 kts 230°
2026-05-04 20:11 44.81127 -0.74081 1783 ft 152 kts 230°
2026-05-04 20:11 44.80354 -0.75159 2330 ft 163 kts 231°
2026-05-04 20:12 44.79540 -0.76366 2817 ft 177 kts 230°
2026-05-04 20:12 44.78666 -0.77689 3318 ft 191 kts 237°
2026-05-04 20:12 44.78344 -0.79497 3689 ft 202 kts 284°
2026-05-04 20:12 44.79137 -0.81182 4083 ft 222 kts 326°
2026-05-04 20:13 44.80665 -0.81849 4593 ft 245 kts 356°
2026-05-04 20:13 44.82422 -0.81883 5327 ft 258 kts 358°
2026-05-04 20:13 44.84238 -0.81891 6216 ft 264 kts 358°
2026-05-04 20:13 44.86096 -0.81892 7104 ft 269 kts 359°
2026-05-04 20:14 44.87980 -0.81902 8033 ft 272 kts 358°
2026-05-04 20:14 44.89851 -0.81935 8974 ft 274 kts 357°
2026-05-04 20:14 44.91759 -0.81987 9945 ft 275 kts 356°
2026-05-04 20:14 44.93715 -0.82055 10471 ft 292 kts 356°
2026-05-04 20:15 44.95821 -0.82262 10782 ft 314 kts 349°
2026-05-04 20:15 44.98021 -0.82809 11362 ft 326 kts 347°
2026-05-04 20:15 45.00266 -0.83429 12091 ft 332 kts 347°
2026-05-04 20:15 45.02551 -0.84085 12850 ft 337 kts 347°
2026-05-04 20:16 45.04867 -0.84756 13592 ft 343 kts 347°
2026-05-04 20:16 45.07225 -0.85435 14271 ft 349 kts 347°
2026-05-04 20:16 45.09620 -0.86116 14935 ft 354 kts 347°
2026-05-04 20:16 45.12052 -0.86802 15596 ft 358 kts 347°
2026-05-04 20:17 45.14511 -0.87494 16264 ft 363 kts 347°
2026-05-04 20:17 45.17009 -0.88194 16916 ft 368 kts 347°
2026-05-04 20:17 45.19535 -0.88901 17568 ft 372 kts 347°
2026-05-04 20:17 45.22089 -0.89616 18211 ft 377 kts 347°
2026-05-04 20:18 45.24682 -0.90343 18772 ft 382 kts 347°
2026-05-04 20:18 45.27306 -0.91080 19337 ft 386 kts 347°
2026-05-04 20:18 45.29953 -0.91825 19907 ft 390 kts 347°
2026-05-04 20:18 45.32635 -0.92582 20471 ft 394 kts 347°
2026-05-04 20:19 45.35338 -0.93348 21035 ft 399 kts 347°
2026-05-04 20:19 45.38072 -0.94128 21594 ft 403 kts 347°
2026-05-04 20:19 45.40833 -0.94914 22142 ft 407 kts 347°
2026-05-04 20:19 45.43626 -0.95706 22690 ft 412 kts 347°
2026-05-04 20:20 45.46452 -0.96505 23235 ft 416 kts 347°
2026-05-04 20:20 45.49310 -0.97314 23738 ft 420 kts 347°
2026-05-04 20:20 45.52193 -0.98130 24184 ft 424 kts 347°
2026-05-04 20:20 45.55098 -0.98954 24613 ft 428 kts 347°
2026-05-04 20:21 45.58041 -0.99791 25036 ft 432 kts 347°
2026-05-04 20:21 45.61004 -1.00635 25429 ft 437 kts 347°
2026-05-04 20:21 45.67022 -1.02360 26234 ft 445 kts 347°
2026-05-04 20:22 45.70031 -1.03226 26617 ft 448 kts 347°
2026-05-04 20:22 45.73143 -1.04119 27017 ft 452 kts 347°
2026-05-04 20:22 45.76237 -1.05004 27382 ft 456 kts 347°
2026-05-04 20:22 45.79362 -1.05900 27754 ft 459 kts 347°
2026-05-04 20:23 45.82511 -1.06806 28115 ft 463 kts 347°
2026-05-04 20:23 45.85676 -1.07718 28475 ft 466 kts 347°
2026-05-04 20:23 45.88872 -1.08638 28828 ft 470 kts 347°
2026-05-04 20:23 45.92090 -1.09565 29177 ft 473 kts 347°
2026-05-04 20:24 45.95321 -1.10496 29518 ft 476 kts 347°
2026-05-04 20:24 45.98587 -1.11438 29855 ft 479 kts 347°
2026-05-04 20:24 46.01862 -1.12384 30149 ft 483 kts 347°
2026-05-04 20:24 46.05118 -1.13330 30441 ft 485 kts 347°
2026-05-04 20:25 46.08437 -1.14300 30746 ft 486 kts 347°
2026-05-04 20:25 46.11765 -1.15275 31054 ft 488 kts 347°
2026-05-04 20:25 46.15093 -1.16242 31357 ft 489 kts 347°
2026-05-04 20:25 46.18432 -1.17209 31660 ft 490 kts 347°
2026-05-04 20:26 46.20691 -1.17865 31931 ft 489 kts 347°
2026-05-04 20:26 46.24013 -1.18835 32352 ft 487 kts 347°
2026-05-04 20:26 46.27325 -1.19799 32792 ft 485 kts 347°
2026-05-04 20:26 46.30625 -1.20761 33275 ft 481 kts 347°
2026-05-04 20:27 46.33899 -1.21719 33767 ft 478 kts 347°
2026-05-04 20:27 46.37108 -1.22662 34165 ft 476 kts 347°
2026-05-04 20:27 46.40358 -1.23620 34497 ft 475 kts 347°
2026-05-04 20:27 46.43586 -1.24576 34807 ft 474 kts 347°
2026-05-04 20:28 46.46813 -1.25532 35105 ft 473 kts 347°
2026-05-04 20:28 46.50040 -1.26486 35400 ft 472 kts 347°
2026-05-04 20:28 46.53260 -1.27437 35686 ft 471 kts 347°
2026-05-04 20:28 46.56474 -1.28383 35918 ft 472 kts 347°
2026-05-04 20:29 46.62851 -1.30258 35975 ft 463 kts 347°
2026-05-04 20:29 46.69134 -1.32113 35975 ft 461 kts 347°
2026-05-04 20:30 46.75423 -1.33990 35975 ft 461 kts 347°
2026-05-04 20:30 46.81706 -1.35874 35975 ft 461 kts 347°
2026-05-04 20:31 46.87989 -1.37752 35975 ft 461 kts 347°
2026-05-04 20:31 46.94269 -1.39636 35976 ft 461 kts 347°
2026-05-04 20:32 47.00559 -1.41523 35976 ft 461 kts 347°
2026-05-04 20:32 47.06836 -1.43408 35972 ft 461 kts 347°
2026-05-04 20:33 47.13128 -1.45295 35980 ft 460 kts 347°
2026-05-04 20:33 47.19399 -1.47197 35980 ft 460 kts 347°
2026-05-04 20:34 47.25672 -1.49106 35980 ft 460 kts 347°
2026-05-04 20:34 47.31952 -1.51006 35977 ft 460 kts 347°
2026-05-04 20:35 47.38192 -1.52910 35818 ft 463 kts 347°
2026-05-04 20:35 47.41345 -1.53877 35563 ft 462 kts 347°
2026-05-04 20:35 47.44490 -1.54841 35325 ft 461 kts 347°
2026-05-04 20:36 47.47627 -1.55805 35079 ft 460 kts 347°
2026-05-04 20:36 47.50757 -1.56768 34748 ft 457 kts 347°
2026-05-04 20:36 47.53870 -1.57723 34173 ft 456 kts 348°
2026-05-04 20:36 47.56979 -1.58673 33558 ft 456 kts 348°
2026-05-04 20:37 47.60072 -1.59615 33014 ft 453 kts 348°
2026-05-04 20:37 47.63152 -1.60557 32472 ft 450 kts 348°
2026-05-04 20:37 47.66211 -1.61501 31931 ft 448 kts 348°
2026-05-04 20:37 47.69262 -1.62448 31394 ft 447 kts 348°
2026-05-04 20:38 47.72295 -1.63390 30872 ft 445 kts 348°
2026-05-04 20:38 47.75313 -1.64325 30356 ft 443 kts 348°
2026-05-04 20:38 47.78340 -1.65259 29816 ft 442 kts 348°
2026-05-04 20:38 47.81339 -1.66185 29314 ft 438 kts 348°
2026-05-04 20:39 47.84313 -1.67107 28823 ft 435 kts 348°
2026-05-04 20:39 47.87229 -1.68014 28352 ft 431 kts 348°
2026-05-04 20:39 47.90188 -1.68935 27871 ft 427 kts 348°
2026-05-04 20:39 47.93090 -1.69840 27395 ft 425 kts 348°
2026-05-04 20:40 47.95980 -1.70742 26905 ft 422 kts 348°
2026-05-04 20:40 47.98842 -1.71639 26415 ft 420 kts 348°
2026-05-04 20:40 48.01695 -1.72536 25909 ft 418 kts 348°
2026-05-04 20:40 48.04534 -1.73429 25414 ft 416 kts 348°
2026-05-04 20:41 48.07328 -1.74487 24924 ft 414 kts 340°
2026-05-04 20:41 48.09985 -1.76111 24441 ft 411 kts 337°
2026-05-04 20:41 48.12591 -1.77772 23995 ft 406 kts 337°
2026-05-04 20:41 48.15161 -1.79419 23333 ft 396 kts 337°
2026-05-04 20:42 48.17638 -1.81014 22875 ft 379 kts 337°
2026-05-04 20:42 48.20015 -1.82546 22424 ft 364 kts 337°
2026-05-04 20:42 48.22327 -1.84037 21989 ft 361 kts 337°
2026-05-04 20:42 48.24600 -1.85503 21557 ft 359 kts 337°
2026-05-04 20:43 48.26893 -1.86983 21125 ft 358 kts 337°
2026-05-04 20:43 48.29177 -1.88453 20696 ft 356 kts 337°
2026-05-04 20:43 48.31448 -1.89929 20281 ft 355 kts 336°
2026-05-04 20:43 48.33704 -1.91428 19856 ft 354 kts 336°
2026-05-04 20:44 48.35946 -1.92939 19435 ft 353 kts 336°
2026-05-04 20:44 48.38178 -1.94453 19019 ft 352 kts 336°
2026-05-04 20:44 48.40413 -1.95968 18598 ft 352 kts 336°
2026-05-04 20:44 48.42642 -1.97475 18165 ft 351 kts 336°
2026-05-04 20:45 48.44864 -1.98971 17734 ft 349 kts 336°
2026-05-04 20:45 48.47080 -2.00458 17320 ft 346 kts 336°
2026-05-04 20:45 48.49272 -2.01928 16920 ft 344 kts 336°
2026-05-04 20:45 48.51454 -2.03399 16516 ft 342 kts 336°
2026-05-04 20:46 48.53616 -2.04861 16125 ft 340 kts 336°
2026-05-04 20:46 48.55771 -2.06319 15738 ft 338 kts 336°
2026-05-04 20:46 48.57911 -2.07767 15347 ft 336 kts 336°
2026-05-04 20:46 48.60026 -2.09228 14972 ft 334 kts 335°
2026-05-04 20:47 48.62121 -2.10761 14586 ft 333 kts 334°
2026-05-04 20:47 48.64186 -2.12320 14204 ft 331 kts 334°
2026-05-04 20:47 48.66242 -2.13887 13819 ft 330 kts 334°
2026-05-04 20:47 48.68283 -2.15443 13403 ft 328 kts 334°
2026-05-04 20:48 48.70312 -2.16988 13014 ft 325 kts 334°
2026-05-04 20:48 48.72324 -2.18513 12633 ft 322 kts 335°
2026-05-04 20:48 48.74316 -2.20012 12242 ft 319 kts 335°
2026-05-04 20:48 48.76302 -2.21501 11856 ft 316 kts 335°
2026-05-04 20:49 48.78270 -2.22980 11467 ft 314 kts 335°
2026-05-04 20:49 48.80220 -2.24447 11069 ft 312 kts 335°
2026-05-04 20:49 48.82137 -2.25887 10695 ft 310 kts 335°
2026-05-04 20:49 48.84066 -2.27338 10295 ft 308 kts 335°
2026-05-04 20:50 48.85981 -2.28783 9901 ft 306 kts 335°
2026-05-04 20:50 48.87842 -2.30189 9521 ft 293 kts 334°
2026-05-04 20:50 48.89634 -2.31541 9069 ft 282 kts 335°
2026-05-04 20:50 48.91366 -2.32852 8674 ft 276 kts 335°
2026-05-04 20:51 48.93078 -2.34149 8294 ft 274 kts 335°
2026-05-04 20:51 48.94783 -2.35443 7900 ft 273 kts 335°
2026-05-04 20:51 48.96473 -2.36729 7511 ft 272 kts 335°
2026-05-04 20:51 48.98162 -2.38017 7106 ft 271 kts 335°
2026-05-04 20:52 48.99849 -2.39302 6707 ft 271 kts 335°
2026-05-04 20:52 49.01513 -2.40618 6276 ft 267 kts 329°
2026-05-04 20:52 49.02937 -2.42328 5869 ft 256 kts 318°
2026-05-04 20:52 49.04220 -2.44157 5473 ft 251 kts 319°
2026-05-04 20:53 49.05493 -2.45955 5080 ft 248 kts 319°
2026-05-04 20:53 49.06757 -2.47740 4660 ft 245 kts 319°
2026-05-04 20:53 49.07991 -2.49483 4256 ft 239 kts 319°
2026-05-04 20:53 49.09196 -2.51187 3875 ft 234 kts 319°
2026-05-04 20:54 49.10425 -2.52743 3604 ft 222 kts 333°
2026-05-04 20:54 49.11838 -2.53298 3411 ft 210 kts
2026-05-04 20:54 49.13204 -2.52590 3282 ft 205 kts 36°
2026-05-04 20:54 49.14307 -2.51259 3163 ft 205 kts 39°
2026-05-04 20:55 49.15419 -2.49897 3032 ft 204 kts 39°
2026-05-04 20:55 49.16523 -2.48548 2900 ft 200 kts 39°
2026-05-04 20:55 49.17586 -2.47240 2764 ft 192 kts 41°
2026-05-04 20:55 49.18393 -2.45666 2630 ft 188 kts 63°
2026-05-04 20:56 49.18748 -2.43749 2510 ft 188 kts 82°
2026-05-04 20:56 49.18915 -2.41778 2381 ft 185 kts 81°
2026-05-04 20:56 49.19081 -2.39835 2253 ft 183 kts 81°
2026-05-04 20:56 49.19242 -2.37949 2170 ft 176 kts 81°
2026-05-04 20:57 49.19398 -2.36121 2085 ft 172 kts 81°
2026-05-04 20:57 49.19547 -2.34359 2003 ft 164 kts 81°
2026-05-04 20:57 49.19693 -2.32638 1839 ft 160 kts 81°
2026-05-04 20:57 49.19832 -2.31001 1640 ft 150 kts 81°
2026-05-04 20:58 49.19961 -2.29466 1443 ft 142 kts 81°
2026-05-04 20:58 49.20085 -2.28003 1280 ft 136 kts 80°
2026-05-04 20:58 49.20205 -2.26580 1091 ft 134 kts 79°
2026-05-04 20:58 49.20324 -2.25172 906 ft 133 kts 80°
2026-05-04 20:59 49.20442 -2.23769 729 ft 133 kts 80°
2026-05-04 20:59 49.20560 -2.22373 548 ft 133 kts 81°
2026-05-04 20:59 49.20672 -2.20977 368 ft 132 kts 80°
2026-05-04 20:59 49.20791 -2.19638 286 ft 112 kts 83°
2026-05-04 21:00 49.20855 -2.18888 283 ft 38 kts 82°
2026-05-04 21:00 49.20887 -2.18516 282 ft 25 kts 83°
2026-05-04 21:00 49.20834 -2.18374 284 ft 13 kts 170°
2026-05-04 21:00 49.20800 -2.18385 288 ft 0 kts 204°
2026-05-04 21:01 49.20769 -2.18415 284 ft 12 kts 218°
2026-05-04 21:01 49.20732 -2.18521 288 ft 11 kts 260°
2026-05-04 21:02 49.20723 -2.18629 284 ft 10 kts 263°
2026-05-04 21:02 49.20715 -2.18729 284 ft 10 kts 263°
2026-05-04 21:02 49.20703 -2.18872 284 ft 15 kts 262°
2026-05-04 21:02 49.20690 -2.19027 288 ft 14 kts 263°
2026-05-04 21:03 49.20680 -2.19170 284 ft 13 kts 268°
2026-05-04 21:03 49.20701 -2.19318 284 ft 16 kts 285°
2026-05-04 21:03 49.20705 -2.19491 284 ft 17 kts 261°
2026-05-04 21:03 49.20677 -2.19634 284 ft 11 kts 232°
2026-05-04 21:04 49.20614 -2.19669 284 ft 9 kts 171°
2026-05-04 21:04 49.20568 -2.19642 284 ft 3 kts 158°
2026-05-04 21:04 49.20562 -2.19637 284 ft 0 kts 158°